Location: Hokitika
(42.7170°S, 170.9670°E)
Time: 02:01:40
(UTC+13:00)

Cosmos 1850 Rocket - Pass Details

Date: 24 January 2019
Orbit: 754 x 786 km, 74.0° (Epoch: 22 February)

Event Time Altitude Azimuth Distance (km) Brightness Sun altitude
Rises 21:36:04 0° 340° (NNW) 3,220 7.1 -5.2°
Reaches altitude 10° 21:38:26 10° 339° (NNW) 2,298 6.4 -5.6°
Maximum altitude 21:43:39 85° 251° (WSW) 776 4.1 -6.4°
Drops below altitude 10° 21:48:56 10° 161° (SSE) 2,316 6.7 -7.2°
Sets 21:51:19 0° 160° (SSE) 3,247 7.5 -7.6°
